Погода Ванжиль-Кынак

Погода Ванжиль-Кынак : погода сейчас, прогноз погоды и архив. Всё, что Вы хотите узнать о погоде Ванжиль-Кынак!

Хотите узнать прогноз погоды Ванжиль-Кынак? Тогда Вам сюда: Погода Ванжиль-Кынак

Поиск расширенной информации на нашем сайте:

Другие новости

Новости СМИ2

Главная страница сайта

Новости сайта

03.07.2017

Напоминаем, что на нашем специализированном сайте Метеоцентр.Азия вы можете получить высокодетализированные автоматические прогнозы погоды по пунктам России, СНГ и мира в авиационном формате (включающие направление и скорость ветра, видимость, явления погоды, количество и форму облачности, нижнюю и верхнюю границу облачности).


Погода Ванжиль-Кынак - сегодня

Время (UTC), дата Ветер
(°,м/с) 
Видим.   Явления Облачность Т
(°С)
Тd
(°С)
f(%) Тe
(°С)
Pmin
(гПа)
dP
(гПа)
Po
(мм)
O2
(г/м3)
Тmin Tmax R s Состояние
почвы
09 16.04.18 100 (В) 4000 м  слаб. ливневой снег  10/10 300 м кучево-дожд. 
[Cb cap]
-0.5 -2.9 84 999.6  -0.3  740  299           
12 16.04.18 030 (СВ) 4000 м  слаб. ливневой снег  10/10 300 м кучево-дожд. 
[Cb cap]
-1.2 -1.9 95 -1  998.8  -0.9  740  300    +0.1     
15 16.04.18 030 (СВ) 2000 м  ливневой снег  10/10 300 м кучево-дожд. 
[Cb cap]
-2.2 -2.8 96 -2  997.5  -1.3  739  300           
18 16.04.18 030 (СВ) 4000 м  слаб. ливневой снег  10/10 300 м кучево-дожд. 
[Cb cap]
-3.6 -4.4 94 -5  995.1  -2.4  737  301           
00 17.04.18 330 (СЗ) 2000 м  ливневой снег  10/10 300 м кучево-дожд. 
[Cb cap]
-8 -9.4 90 -11  996.4  1.1  738  307  -8    14  84  равномерный
сухой снег
100% 
12 17.04.18 300 (СЗ) 3{11}  10 км  в посл. час ливневой снег  10/8 600 м кучево-дожд., средняя 
[Cb cap|Ac As]
-7.8 -13.4 64 -11  1008.8  747  311    -6.7     
15 17.04.18 270 (З) 20000 м    10/0 средняя 
[Ac As]
-10.4 -14 75 -10  1011.7  2.6  749  315           
18 17.04.18 тихо ()   20000 м    ясно 
-13.6 -16.3 80 -14  1013.9  2.1  751  320           
00 18.04.18 тихо ()   10 км    ясно 
-18.3 -20.2 85 -18  1017.1  1.1  753  327  -18.9      81  равномерный
сухой снег
100% 
03 18.04.18 270 (З) 10 км    ясно 
-12.8 -18 65 -13  1018.9  2.1  754  320           
06 18.04.18 260 (З) 10 км    8/1 300 м средняя, верхняя 
[Cu hum|Ac lent|Ci sp]
-8.6 -15.7 56 -8  1019.8  1.1  755  315           
09 18.04.18 280 (З) 10 км    3/1 600 м верхняя 
[Cu hum|Ci fib]
-6.8 -16.6 46 -9  1020.2  0.5  755  314           
12 18.04.18 280 (З) 10 км    1/0 верхняя 
[Ci fib]
-7 -16.9 45 -7  1020.2  755  314    -5.9       
15 18.04.18 тихо ()   20000 м    3/0 верхняя 
[Ci fib]
-13.6 -17.1 75 -14  1020.8  0.3  756  322           
18 18.04.18 тихо ()   20000 м    ясно 
-18.8 -20.7 85 -19  1021  -0.1  756  329           
21 18.04.18 тихо ()   20000 м    ясно 
-21.4 -23.2 85 -21  1020.7  -0.4  755  332           
00 19.04.18 350 (С) 10 км    3/0 верхняя 
[Ci fib]
-22 -23.3 89 -22  1019.7  -1  755  332  -23      75  равномерный
сухой снег
100% 
03 19.04.18 180 (Ю) 10 км    10/0 верхняя 
[Cs]
-6.7 -13.4 59 -8  1018  -1  754  313           
06 19.04.18 200 (Ю) 10 км    10/3 600 м верхняя 
[Cu hum|Cs]
-0.9 -12.7 40 -2  1015.8  -1.9  752  305           
09 19.04.18 200 (Ю) 4{10}  10 км    10/5 600 м верхняя 
[Cu hum|Cs]
+1.1 -13.2 33 -1  1013.7  -2  751  303           
12 19.04.18 200 (Ю) 3{10}  10 км    10/0 верхняя 
[Cs]
+0.6 -15.7 28 -1  1012.5  -1.2  750  303    +1.7       
15 19.04.18 180 (Ю) 20000 м    10/0 средняя 
[As op]
-1.4 -12 44 -1  1012.2  -0.4  750  305           
18 19.04.18 170 (Ю) 20000 м    10/0 средняя 
[As trans]
-1.8 -11.6 47 -1  1011.5  -0.7  749  305           
21 19.04.18 150 (ЮВ) 20000 м    4/3 600 м верхняя 
[Sc|Ci fib]
-3.6 -12.1 52 -3  1009.8  -1.7  748  306           
00 20.04.18 160 (Ю) 10 км    10/0 верхняя 
[Cs]
-3.2 -11 55 -4  1009  -0.8  747  306  -4.4      75  равномерный
сухой снег
100% 
Время (UTC), дата Ветер
(°,м/с) 
Видим.   Явления Облачность Т
(°С)
Тd
(°С)
f(%) Тe
(°С)
Pmin
(гПа)
dP
(гПа)
Po
(мм)
O2
(г/м3)
Тmin Tmax R s Состояние
почвы

Для получения пояснительной информации подведите курсор к названию столбца.

ПОГОДА Ванжиль-Кынак - архив

Всё, что Вы хотите узнать о погоде Ванжиль-Кынак - удобно и подробно!

Выберите нужную дату (начиная с 1 января 2015* года) и нажмите кнопку "Найти".
Будут отображены архивные сводки погоды по пункту Ванжиль-Кынак, начиная с указанной даты.


Отображать данные в формате CSV (для использования в таблицах Excel)


Внимание! Наш архив погоды предназначен исключительно для личного некоммерческого использования в познавательных целях. Если Вам необходимы официальные справки о состоянии погоды (для производственных, юридических, коммерческих и т.п. целей), обращайтесь в органы Росгидромета.

*Примечание: данная дата относится к архиву по метеостанциям СССР (Россия, СНГ, Балтия).
Архив по метеостанциям Зарубежной Европы и Азии (кроме Китая) хранится 10 дней, по другим регионам земного шара (Китай, Африка, Америка, Австралия, Океания) - 1 день.

Ванжиль-Кынак - район местоположения метеостанции


Название, широта, долгота, высота метеостанции:
Ванжиль-Кынак 60.3°ш. 84.1°д. 99 м над ур. моря [Российская Федерация]

Дополнительная информация

В oтличие oт бoльшинства пoгoдных сайтoв мы публикуем пoдрoбную метеoинфoрмацию в детальнoм прoфессиoнальнoм фoрмате.

Характеристики температуры и влажнoсти вoздуха измеряются на высoте 2 м в тени вдали oт зданий и деревьев.
Скoрoсть ветра измеряется на высoте 10 м (на урoвне рoста челoвека скoрoсть ветра ниже в 1.5-2 раза). Если метеoстанция нахoдится в гoрoде или в лесу, тo скoрoсть ветра занижена на 2-4 м/с пo сравнению с oткрытым местoм. Скoрoсть ветра над акватoриями крупных рек и oзёр, а также на вершинах хoлмoв на 2-5 м/с выше, чем в oбычных услoвиях.
Атмoсфернoе давление в разных тoчках местнoсти мoжет значительнo oтличаться oт давления на метеoстанции, в зависимoсти oт услoвий рельефа (при пoдъёме на 10 м давление пoнижается примернo на 1 мм рт.ст.).